Regional Weather Roundup
Issued by NWS

Home | Current Version | Previous Version | Text Only | Print | Product List | Glossary On
Versions: 1 2 3 4 5 6 7 8 9 10 11 12 13 14 15 16 17 18 19 20 21 22 23 24 25 26 27 28 29 30 31 32 33 34 35 36 37 38 39 40 41 42 43 44 45 46 47 48 49 50
354
ASUS44 KJAN 011510
RWRMS

MISSISSIPPI HOURLY WEATHER ROUNDUP
NATIONAL WEATHER SERVICE JACKSON MS
1000 AM CDT WED OCT 01 2014

NOTE: "FAIR: INDICATES FEW OR NO CLOUDS BELOW 12,000 FEET WITH NO
SIGNIFICANT WEATHER AND/OR OBSTRUCTIONS TO VISIBILITY.

MSZ001>002-007>008-010>013-018>021-025>028-034>036-011600-
NORTHWEST MISSISSIPPI

CITY           SKY/WX    TMP DP  RH WIND       PRES   REMARKS
CLARKSDALE     FAIR      81  72  74 SE9       29.94S
CLEVELAND      FAIR      82  73  74 S10       29.93R
GREENWOOD      PTSUNNY   80  70  71 S6        29.95R
GREENVILLE     MOSUNNY   82  71  69 S15       29.92R
GRENADA        FAIR      77  66  69 CALM      29.96S
OLIVE BRANCH   MOSUNNY   75  68  78 S7        29.95S
OXFORD         FAIR      75  63  64 SW5       29.98S
TUNICA         SUNNY     81  68  65 S8        29.94S
$$

MSZ003>006-009-014>017-022>024-029>033-037>039-011600-
NORTHEAST MISSISSIPPI

CITY           SKY/WX    TMP DP  RH WIND       PRES   REMARKS
COLUMBUS AFB   SUNNY     77  65  66 S5        29.98R
CORINTH        FAIR      81  61  50 S7G13     29.97R
GOLDN TRIANGLE SUNNY     77  66  69 SW3       29.97S
STARKVILLE     FAIR      77  66  69 S3        29.97S
TUPELO         SUNNY     77  63  61 VRB3      29.98R
$$

MSZ040-058-011600-
CENTRAL MISSISSIPPI

CITY           SKY/WX    TMP DP  RH WIND       PRES   REMARKS
JACKSON INTL   CLOUDY    76  71  85 S6        29.96R
JACKSON HAWKNS PTSUNNY   78  69  73 S9        29.96R
MERIDIAN KEY   SUNNY     77  67  71 S6        29.98R
MERIDIAN NAS   SUNNY     78  67  68 S3        29.98S
RAYMOND        FAIR      77  73  88 SE7       29.96R
VICKSBURG      SUNNY     79  70  74 S9        29.94R
$$

MSZ059>079-011600-
SOUTH MISSISSIPPI

CITY           SKY/WX    TMP DP  RH WIND       PRES   REMARKS
BROOKHAVEN     FAIR      79  72  78 SE9       29.97S
COLUMBIA       FAIR      81  72  74 SE8       29.95R
HATTIESBURG    SUNNY     78  70  76 E5        29.97S
MCCOMB         PTSUNNY   77  71  82 SE8       29.96R
NATCHEZ        CLOUDY    75  72  88 SE8       29.95R
PINE BELT      SUNNY     75  70  83 CALM      29.99R
$$

MSZ080>082-011600-
COASTAL MISSISSIPPI

CITY           SKY/WX    TMP DP  RH WIND       PRES   REMARKS
BAY ST LOUIS   MOSUNNY   81  70  69 SE7       29.96R
BILOXI         SUNNY     81  71  70 E6        29.97R
PASCAGOULA     SUNNY     80  70  71 VRB5      29.96R
GULFPORT       MOSUNNY   80  70  71 E5        29.95R
$$



USA.gov is the U.S. government's official web portal to all federal, state and local government web resources and services.